GW4549 Weather Reports


time (UTC)temp
C
wind
direction
speed
KPH
gust
KPH
rain 1hr
cm
rain 24hr
cm
rain mn
cm
humidity
%
barometer
mb
20260507170005 11 80 1.6 14.5 0.38 3.66 3.66 92 1012.1
20260507165506 12 84 8.0 14.5 0.43 3.63 3.63 92 1011.7
20260507165005 12 51 6.4 19.3 0.48 3.63 3.63 92 1011.7
20260507164516 12 92 9.7 19.3 0.48 3.61 3.61 92 1011.4
20260507164007 12 71 6.4 14.5 0.48 3.58 3.58 93 1011.4
20260507163510 12 324 4.8 14.5 0.48 3.56 3.56 93 1011.2
20260507163003 12 83 3.2 14.5 0.48 3.51 3.51 1011.4
20260507162510 12 36 4.8 14.5 0.51 3.48 3.48 93 1011.2
20260507162008 12 85 3.2 16.1 0.61 3.48 3.48 93 1011.4
20260507161507 12 83 1.6 19.3 0.64 3.43 3.43 92 1011.6
20260507161008 12 95 3.2 19.3 0.69 3.38 3.38 92 1011.7
20260507160509 12 75 3.2 12.9 0.71 3.33 3.33 93 1011.9
20260507160022 12 96 4.8 12.9 0.74 3.28 3.28 93 1011.6
20260507155513 12 326 1.6 12.9 0.71 3.20 3.20 93 1011.6
20260507155003 12 52 3.2 17.7 0.69 3.15 3.15 93 1011.5
20260507154506 12 82 6.4 20.9 0.69 3.12 3.12 92 1011.2
20260507154008 12 138 6.4 20.9 0.69 3.10 3.10 92 1010.6
20260507153505 12 107 3.2 12.9 0.66 3.07 3.07 1011.1
20260507153029 12 104 6.4 14.5 0.61 3.02 3.02 92 1011.7
20260507152506 12 103 4.8 14.5 0.58 2.95 2.95 92 1011.7
20260507152009 12 14 3.2 20.9 0.48 2.87 2.87 92 1011.8
20260507151524 12 348 3.2 20.9 0.43 2.79 2.79 91 1011.9
20260507151004 12 115 4.8 17.7 0.33 2.67 2.67 91 1012.1
20260507150504 12 108 4.8 16.1 0.25 2.62 2.62 91 1012.2
20260507150011 12 308 3.2 17.7 0.18 2.54 2.54 91 1012.2
20260507145508 12 86 6.4 19.3 0.13 2.49 2.49 91 1012.1
20260507145010 12 52 3.2 19.3 0.10 2.46 2.46 91 1011.9
20260507144520 13 360 3.2 22.5 0.08 2.44 2.44 90 1011.7
20260507144010 13 352 6.4 22.5 0.05 2.41 2.41 91 1011.7
20260507143510 13 20 3.2 14.5 0.05 2.41 2.41 91 1011.7
20260507143027 13 84 1.6 25.7 0.05 2.41 2.41 91 1011.6
20260507142504 13 330 4.8 25.7 0.03 2.39 2.39 91 1011.5
20260507142009 13 87 6.4 25.7 0.03 2.39 2.39 91 1011.4
20260507141516 14 72 4.8 12.9 0.00 2.36 2.36 91 1011.4
20260507141008 14 101 1.6 16.1 0.00 2.36 2.36 92 1011.3
20260507140507 14 63 3.2 19.3 0.00 2.36 2.36 92 1011.3
20260507140023 15 73 6.4 19.3 0.00 2.36 2.36 92 1011.2
20260507135507 15 96 6.4 16.1 0.03 2.36 2.36 93 1011.2
20260507135011 15 82 4.8 12.9 0.08 2.36 2.36 92 1011.2
20260507134507 15 328 1.6 11.3 0.08 2.36 2.36 92 1011.1
20260507134004 14 352 1.6 16.1 0.10 2.36 2.36 92 1011.0
20260507133508 15 81 3.2 16.1 0.10 2.36 2.36 92 1011.0
20260507133019 15 60 4.8 12.9 0.10 2.36 2.36 92 1011.0
20260507132510 15 344 3.2 12.9 0.10 2.36 2.36 92 1010.9
20260507132010 15 33 1.6 12.9 0.13 2.36 2.36 92 1010.9
20260507131528 15 336 3.2 9.7 0.13 2.36 2.36 92 1010.9
20260507131010 15 62 1.6 9.7 0.15 2.36 2.36 92 1010.9
20260507130506 15 344 3.2 9.7 0.20 2.36 2.36 93 1011.0
20260507130022 15 16 3.2 14.5 0.23 2.36 2.36 92 1011.2
20260507125508 15 360 1.6 20.9 0.20 2.34 2.34 92 1011.3
20260507125008 15 333 3.2 20.9 0.18 2.29 2.29 92 1011.5
20260507124528 15 10 1.6 17.7 0.20 2.29 2.29 92 1011.3
20260507124010 15 11 4.8 17.7 0.28 2.26 2.26 92 1011.2
20260507123511 15 15 4.8 16.1 0.30 2.26 2.26 92 1011.2
20260507123027 15 344 4.8 16.1 0.33 2.26 2.26 92 1011.2
20260507122504 15 67 3.2 12.9 0.36 2.26 2.26 92 1011.2
20260507122006 15 18 3.2 19.3 0.38 2.24 2.24 92 1011.2
20260507121516 15 9 3.2 19.3 0.43 2.24 2.24 92 1011.3
20260507121007 15 338 4.8 17.7 0.41 2.21 2.21 92 1011.3
20260507120511 15 348 3.2 17.7 0.38 2.16 2.16 92 1011.3
20260507120024 15 5 3.2 17.7 0.38 2.13 2.13 92 1011.5
20260507115509 15 345 4.8 20.9 0.41 2.13 2.13 92 1011.5
20260507115011 15 29 8.0 20.9 0.38 2.11 2.11 92 1011.3
20260507114512 15 65 8.0 16.1 0.41 2.08 2.08 92 1011.2
20260507114014 16 360 3.2 25.7 0.30 1.98 1.98 92 1011.1
20260507113507 16 360 8.0 25.7 0.33 1.96 1.96 91 1011.1
20260507113019 17 9 4.8 20.9 0.38 1.93 1.93 91 1010.8
20260507112508 18 321 6.4 11.3 0.56 1.91 1.91 93 1010.6
20260507112010 18 294 0.0 6.4 0.69 1.85 1.85 93 1010.4
20260507111527 18 242 3.2 6.4 0.74 1.80 1.80 93 1010.7
20260507111010 18 257 1.6 6.4 0.89 1.80 1.80 93 1010.5
20260507110506 18 270 3.2 6.4 0.99 1.78 1.78 92 1010.3
20260507110015 18 237 1.6 3.2 1.30 1.75 1.75 92 1010.3
20260507105508 18 189 1.6 6.4 1.60 1.73 1.73 92 1010.3
20260507105006 18 293 3.2 9.7 1.65 1.73 1.73 92 1010.2
20260507104522 18 263 4.8 9.7 1.63 1.68 1.68 92 1010.2
20260507104010 18 290 4.8 11.3 1.63 1.68 1.68 92 1010.2
20260507103510 18 309 1.6 11.3 1.57 1.63 1.63 92 1010.0
20260507103030 18 216 1.6 11.3 1.47 1.55 1.55 92 1010.0
20260507102510 18 257 3.2 11.3 1.30 1.32 1.32 92 1010.1
20260507102007 18 236 3.2 11.3 1.12 1.17 1.17 91 1010.0
20260507101518 18 256 1.6 4.8 1.02 1.07 1.07 91 1009.8
20260507101008 18 302 1.6 6.4 0.86 0.91 0.91 91 1009.9
20260507100508 18 323 1.6 9.7 0.76 0.79 0.79 90 1009.9
20260507100033 18 342 3.2 9.7 0.43 0.46 0.46 89 1009.9
20260507095509 18 295 1.6 9.7 0.10 0.13 0.13 89 1009.5
20260507095014 18 242 3.2 9.7 0.05 0.08 0.08 89 1009.4
20260507094529 18 216 1.6 4.8 0.03 0.05 0.05 89 1009.1
20260507094007 18 192 0.0 3.2 0.03 0.05 0.05 88 1009.0
20260507093507 18 205 1.6 6.4 0.03 0.05 0.05 88 1009.1
20260507093022 18 259 0.0 8.0 0.03 0.05 0.05 88 1009.1
20260507092513 18 181 0.0 12.9 0.03 0.05 0.05 87 1009.1
20260507092011 19 238 4.8 12.9 0.03 0.05 0.05 87 1009.2
20260507091529 19 288 3.2 19.3 0.03 0.05 0.05 86 1009.3
20260507091007 19 252 3.2 19.3 0.03 0.05 0.05 85 1009.1
20260507090514 20 193 6.4 17.7 0.00 0.03 0.03 83 1009.4
20260507090022 20 279 8.0 17.7 0.00 0.03 0.03 82 1009.4
20260507085509 20 222 4.8 16.1 0.00 0.03 0.03 82 1009.3
20260507085009 20 155 6.4 16.1 0.00 0.03 0.03 82 1009.4
20260507084523 20 188 8.0 22.5 0.00 0.03 0.03 81 1009.5
20260507084008 20 234 8.0 22.5 0.00 0.03 0.03 81 1009.5
20260507083513 20 303 11.3 20.9 0.00 0.03 0.03 81 1009.6
20260507083030 20 230 6.4 17.7 0.00 0.03 0.03 81 1009.6
20260507082503 20 230 4.8 14.5 0.00 0.03 0.03 81 1009.5
20260507082003 20 259 6.4 19.3 0.00 0.03 0.03 81 1009.6
20260507081507 20 198 4.8 19.3 0.00 0.03 0.03 80 1009.7
20260507081003 20 257 8.0 20.9 0.00 0.03 0.03 80 1009.8
20260507080504 20 241 6.4 20.9 0.00 0.03 0.03 80 1009.8
20260507080005 20 227 4.8 12.9 0.00 0.03 0.03 81 1010.0
20260507075503 20 207 4.8 12.9 0.00 0.03 0.03 80 1010.0
20260507075006 20 250 6.4 16.1 0.00 0.03 0.03 80 1010.2
20260507074511 20 261 6.4 16.1 0.00 0.03 0.03 80 1010.3
20260507074007 20 209 6.4 11.3 0.00 0.03 0.03 81 1010.2
20260507073507 20 280 4.8 11.3 0.00 0.03 0.03 81 1010.1
20260507073013 20 199 4.8 16.1 0.03 0.03 0.03 81 1010.0
20260507072504 20 223 4.8 16.1 0.03 0.03 0.03 82 1010.0
20260507072008 20 227 8.0 16.1 0.03 0.03 0.03 82 1010.0
20260507071534 20 263 6.4 11.3 0.03 0.03 0.03 82 1010.0
20260507071006 20 181 1.6 14.5 0.03 0.03 0.03 82 1009.9
20260507070509 19 250 3.2 14.5 0.03 0.03 0.03 82 1009.9
20260507070014 19 251 3.2 16.1 0.03 0.03 0.03 83 1009.9
20260507065506 19 281 6.4 16.1 0.03 0.03 0.03 83 1009.8
20260507065006 19 202 1.6 11.3 0.03 0.03 0.03 83 1009.7
20260507064508 19 250 4.8 11.3 0.03 0.03 0.03 83 1009.6
20260507064005 19 189 1.6 11.3 0.03 0.03 0.03 83 1009.5
20260507063506 19 246 3.2 9.7 0.03 0.03 0.03 82 1009.4
20260507063015 20 240 1.6 8.0 0.00 0.00 0.00 80 1009.3
20260507062511 20 147 3.2 8.0 0.00 0.00 0.00 80 1009.5
20260507062007 20 226 3.2 14.5 0.00 0.00 0.00 80 1009.9
20260507061517 20 173 3.2 14.5 0.00 0.00 0.00 80 1010.1
20260507061007 20 207 4.8 12.9 0.00 0.00 0.00 80 1010.6
20260507060503 20 198 4.8 12.9 0.00 0.00 0.00 80 1010.9
20260507060008 20 192 3.2 11.3 0.00 0.00 0.00 80 1011.0
20260507055506 20 284 3.2 11.3 0.00 0.00 0.00 79 1011.0
20260507055009 20 257 6.4 14.5 0.00 0.00 0.00 79 1011.0
20260507054516 20 246 6.4 14.5 0.00 0.00 0.00 78 1011.1
20260507054009 20 234 6.4 11.3 0.00 0.00 0.00 77 1011.1
20260507053506 20 267 3.2 14.5 0.00 0.00 0.00 77 1011.1
20260507053015 20 221 3.2 14.5 0.00 0.00 0.00 77 1011.2
20260507052507 20 244 4.8 11.3 0.00 0.00 0.00 76 1011.2
20260507052004 20 267 1.6 14.5 0.00 0.00 0.00 76 1011.2
20260507051527 20 224 8.0 17.7 0.00 0.00 0.00 75 1011.3
20260507051009 20 250 6.4 17.7 0.00 0.00 0.00 75 1011.3
20260507050507 21 197 3.2 12.9 0.00 0.00 0.00 75 1011.2
20260507050022 21 238 4.8 11.3 0.00 0.00 0.00 74 1011.0
20260507045510 21 182 3.2 11.3 0.00 0.00 0.00 72 1010.9
20260507045007 21 240 1.6 8.0 0.00 0.00 0.00 71 1010.8
20260507044508 21 217 3.2 6.4 0.00 0.00 0.00 71 1010.9
20260507044007 21 205 1.6 9.7 0.00 0.00 0.00 71 1010.8
20260507043506 21 229 0.0 9.7 0.00 0.00 0.00 71 1010.9
20260507043018 21 174 3.2 8.0 0.00 0.00 0.00 71 1011.1
20260507042506 21 284 0.0 9.7 0.00 0.00 0.00 71 1011.1
20260507042007 21 234 4.8 9.7 0.00 0.00 0.00 71 1011.1
20260507041518 21 209 4.8 9.7 0.00 0.00 0.00 71 1011.1
20260507041007 21 157 1.6 11.3 0.00 0.00 0.00 70 1011.0
20260507040507 21 186 1.6 11.3 0.00 0.00 0.00 70 1010.8
20260507040014 21 220 4.8 11.3 0.00 0.00 0.00 70 1010.9
20260507035504 21 223 4.8 9.7 0.00 0.00 0.00 71 1011.0
20260507035005 21 225 1.6 9.7 0.00 0.00 0.00 71 1010.8
20260507034531 21 206 1.6 9.7 0.00 0.00 0.00 71 1010.6
20260507034007 21 143 0.0 4.8 0.00 0.00 0.00 71 1010.2
20260507033508 21 213 0.0 4.8 0.00 0.00 0.00 70 1010.4
20260507033033 21 239 1.6 4.8 0.00 0.00 0.00 70 1010.6
20260507032509 21 213 1.6 6.4 0.00 0.00 0.00 71 1010.4
20260507032010 21 231 3.2 6.4 0.00 0.00 0.00 71 1010.4
20260507031518 21 187 0.0 4.8 0.00 0.00 0.00 70 1010.3
20260507031008 21 246 0.0 4.8 0.00 0.00 0.00 70 1010.6
20260507030506 21 226 1.6 4.8 0.00 0.00 0.00 69 1010.8
20260507030026 21 252 1.6 4.8 0.00 0.00 0.00 69 1011.0
20260507025509 21 208 1.6 4.8 0.00 0.00 0.00 69 1011.1
20260507025010 21 247 1.6 6.4 0.00 0.00 0.00 69 1011.1
20260507024522 21 242 1.6 8.0 0.00 0.00 0.00 69 1011.1
20260507024006 21 186 1.6 8.0 0.00 0.00 0.00 69 1011.2
20260507023505 21 142 0.0 8.0 0.00 0.00 0.00 69 1011.3
20260507023027 21 206 1.6 6.4 0.00 0.00 0.00 69 1011.3
20260507022507 21 161 1.6 4.8 0.00 0.00 0.00 69 1011.2
20260507022007 21 162 1.6 4.8 0.00 0.00 0.00 69 1011.2
20260507021523 21 170 0.0 6.4 0.00 0.00 0.00 69 1011.2
20260507021010 21 138 1.6 6.4 0.00 0.00 0.00 69 1011.1
20260507020507 21 175 1.6 8.0 0.00 0.00 0.00 68 1011.2
20260507020018 21 203 1.6 6.4 0.00 0.00 0.00 68 1011.3
20260507015506 21 200 1.6 4.8 0.00 0.00 0.00 68 1011.3
20260507015012 21 216 0.0 4.8 0.00 0.00 0.00 67 1011.3
20260507014521 21 176 1.6 4.8 0.00 0.00 0.00 67 1011.3
20260507014008 21 190 0.0 4.8 0.00 0.00 0.00 66 1011.2
20260507013508 22 192 3.2 4.8 0.00 0.00 0.00 66 1011.1
20260507013024 22 265 3.2 4.8 0.00 0.00 0.00 66 1011.0
20260507012509 22 167 1.6 4.8 0.00 0.00 0.00 66 1010.9
20260507012012 22 187 0.0 8.0 0.00 0.00 0.00 65 1011.1
20260507011520 22 211 0.0 8.0 0.00 0.00 0.00 64 1011.0
20260507011009 22 226 3.2 9.7 0.00 0.00 0.00 64 1011.1
20260507010508 22 211 1.6 11.3 0.00 0.00 0.00 63 1011.0
20260507010025 22 243 3.2 11.3 0.00 0.00 0.00 62 1011.1
20260507005510 22 226 3.2 8.0 0.00 0.00 0.00 62 1011.2
20260507005010 23 239 4.8 8.0 0.00 0.00 0.00 61 1011.2
20260507004514 23 232 3.2 8.0 0.00 0.00 0.00 61 1011.1
20260507004007 23 220 3.2 8.0 0.00 0.00 0.00 61 1011.1
20260507003510 23 227 3.2 12.9 0.00 0.00 0.00 61 1010.9
20260507003022 23 192 4.8 12.9 0.00 0.00 0.00 60 1010.8
20260507002503 23 223 1.6 8.0 0.00 0.00 0.00 60 1010.9
20260507002002 23 229 1.6 9.7 0.00 0.00 0.00 59 1010.9
20260507001511 23 207 3.2 9.7 0.00 0.00 0.00 59 1010.8
20260507001006 23 241 4.8 9.7 0.00 0.00 0.00 59 1010.8
20260507000507 23 252 4.8 14.5 0.00 0.00 0.00 58 1010.6
20260507000018 23 277 6.4 14.5 0.00 0.00 0.00 58 1010.6
20260506235507 23 259 4.8 16.1 0.00 0.00 0.00 58 1010.6
20260506235009 24 236 4.8 14.5 0.00 0.00 0.00 57 1010.6
20260506234506 24 265 6.4 12.9 0.00 0.00 0.00 57 1010.6
20260506234005 24 261 4.8 12.9 0.00 0.00 0.00 57 1010.4
20260506233506 24 223 4.8 14.5 0.00 0.00 0.00 56 1010.4
20260506233014 24 271 6.4 14.5 0.00 0.00 0.00 56 1010.2
20260506232507 24 227 6.4 14.5 0.00 0.00 0.00 56 1010.1
20260506232006 24 243 3.2 17.7 0.00 0.00 0.00 56 1010.1
20260506231523 25 278 11.3 17.7 0.00 0.00 0.00 56 1010.0
20260506231007 25 226 3.2 14.5 0.00 0.00 0.00 56 1010.0
20260506230502 25 224 4.8 14.5 0.00 0.00 0.00 56 1010.1
20260506230007 25 186 3.2 14.5 0.00 0.00 0.00 56 1010.0
20260506225507 25 195 4.8 14.5 0.00 0.00 0.00 56 1010.0
20260506225006 25 211 4.8 16.1 0.00 0.00 0.00 56 1009.9
20260506224517 25 226 8.0 16.1 0.00 0.00 0.00 56 1010.0
20260506224009 25 211 6.4 16.1 0.00 0.00 0.00 56 1010.1
20260506223513 25 257 4.8 16.1 0.00 0.00 0.00 56 1010.2
20260506223023 25 210 4.8 16.1 0.00 0.00 0.00 56 1010.1
20260506222503 25 239 6.4 14.5 0.00 0.00 0.00 56 1010.1
20260506222008 25 234 4.8 27.4 0.00 0.00 0.00 56 1010.1
20260506221512 25 227 4.8 27.4 0.00 0.00 0.00 56 1010.1
20260506221005 25 276 6.4 25.7 0.00 0.00 0.00 56 1010.1
20260506220508 25 185 8.0 25.7 0.00 0.00 0.00 56 1010.1
20260506220031 25 209 8.0 25.7 0.00 0.00 0.00 56 1010.1
20260506215509 25 168 6.4 19.3 0.00 0.00 0.00 56 1009.9
20260506215009 25 165 6.4 22.5 0.00 0.00 0.00 56 1009.8
20260506214507 25 221 8.0 22.5 0.00 0.00 0.00 56 1009.9
20260506214004 25 184 9.7 19.3 0.00 0.00 0.00 56 1010.0
20260506213506 25 190 9.7 22.5 0.00 0.00 0.00 55 1010.0
20260506213016 25 237 11.3 22.5 0.00 0.00 0.00 55 1010.0
20260506212506 25 197 8.0 22.5 0.00 0.00 0.00 55 1010.0
20260506212008 25 240 4.8 25.7 0.00 0.00 0.00 55 1009.9
20260506211523 25 155 9.7 25.7 0.00 0.00 0.00 54 1009.7
20260506211010 25 207 8.0 24.1 0.00 0.00 0.00 54 1009.7
20260506210503 25 169 6.4 24.1 0.00 0.00 0.00 54 1009.8
20260506210013 25 243 9.7 22.5 0.00 0.00 0.00 55 1010.0
20260506205508 25 315 6.4 22.5 0.00 0.00 0.00 56 1010.0
20260506205007 25 174 6.4 25.7 0.00 0.00 0.00 55 1010.1
20260506204520 25 305 6.4 25.7 0.00 0.00 0.00 56 1010.1
20260506204012 25 233 3.2 16.1 0.00 0.00 0.00 56 1010.1
20260506203507 25 202 4.8 25.7 0.00 0.00 0.00 55 1010.2
20260506203029 25 173 6.4 25.7 0.00 0.00 0.00 54 1010.4
20260506202511 25 216 11.3 20.9 0.00 0.00 0.00 54 1010.5
20260506202012 25 140 6.4 22.5 0.00 0.00 0.00 54 1010.6
20260506201512 25 326 9.7 27.4 0.00 0.00 0.00 55 1010.6
20260506201007 25 201 8.0 29.0 0.00 0.00 0.00 56 1010.8
20260506200506 25 217 11.3 29.0 0.00 0.00 0.00 58 1010.8
20260506200023 25 252 11.3 30.6 0.00 0.00 0.00 58 1011.0
20260506195509 25 161 9.7 30.6 0.00 0.00 0.00 58 1011.2
20260506195011 25 247 9.7 24.1 0.00 0.00 0.00 58 1011.2
20260506194527 25 198 9.7 24.1 0.00 0.00 0.00 58 1011.4
20260506194006 25 265 11.3 32.2 0.00 0.00 0.00 58 1011.5
20260506193509 25 200 8.0 32.2 0.00 0.00 0.00 57 1011.6
20260506193018 25 221 9.7 24.1 0.00 0.00 0.00 58 1011.7
20260506192507 26 246 8.0 20.9 0.00 0.00 0.00 58 1011.7
20260506192012 26 182 8.0 20.9 0.00 0.00 0.00 58 1011.7
20260506191524 25 241 9.7 22.5 0.00 0.00 0.00 59 1011.8
20260506191010 25 220 9.7 22.5 0.00 0.00 0.00 59 1011.8
20260506190515 25 244 8.0 24.1 0.00 0.00 0.00 60 1011.7
20260506190020 25 265 4.8 22.5 0.00 0.00 0.00 60 1011.8
20260506185508 24 238 8.0 22.5 0.00 0.00 0.00 60 1011.9
20260506185011 24 212 8.0 22.5 0.00 0.00 0.00 60 1012.0
20260506184523 24 202 8.0 27.4 0.00 0.00 0.00 59 1012.0
20260506184013 25 236 11.3 27.4 0.00 0.00 0.00 59 1012.0
20260506183509 25 116 4.8 29.0 0.00 0.00 0.00 59 1012.0
20260506183028 25 185 12.9 35.4 0.00 0.00 0.00 59 1012.1
20260506182507 25 163 11.3 35.4 0.00 0.00 0.00 59 1012.2
20260506182006 25 159 11.3 33.8 0.00 0.00 0.00 59 1012.3
20260506181520 25 252 11.3 22.5 0.00 0.00 0.00 59 1012.3
20260506181008 24 106 8.0 32.2 0.00 0.00 0.00 59 1012.4
20260506180510 24 250 8.0 32.2 0.00 0.00 0.00 59 1012.5
20260506180025 24 142 12.9 24.1 0.00 0.00 0.00 60 1012.7
20260506175513 24 229 8.0 24.1 0.00 0.00 0.00 59 1012.7
20260506175017 25 284 9.7 24.1 0.00 0.00 0.00 58 1012.8
20260506174527 25 231 6.4 25.7 0.00 0.00 0.00 58 1013.0
20260506174004 25 232 6.4 25.7 0.00 0.00 0.00 58 1013.2
20260506173511 24 171 3.2 25.7 0.00 0.00 0.00 59 1013.3
20260506173022 24 218 6.4 25.7 0.00 0.00 0.00 60 1013.3
20260506172506 23 219 6.4 22.5 0.00 0.00 0.00 61 1013.2
20260506172009 23 180 8.0 24.1 0.00 0.00 0.00 62 1013.5
20260506171525 23 227 4.8 24.1 0.00 0.00 0.00 63 1013.7
20260506171009 23 254 8.0 29.0 0.00 0.00 0.00 63 1013.6
20260506170510 23 165 8.0 29.0 0.00 0.00 0.00 63 1013.6